This is the latest recevied weather packets stored in our database for station/object XQ6AK-15. If no packets are shown the sender has not sent any weather packets the latest 10 day(s).
| Time | Temp. | Humidity | Pressure | Rain* | Wind** | Luminosity | Snow |
|---|---|---|---|---|---|---|---|
| 1787892313 | 7.78° C | 99% | 1006 hPa | 0 mm | - | 0 W/m² | - |
| 1787892009 | 7.78° C | 99% | 1006.1 hPa | 1.78 mm | - | 0 W/m² | - |
| 1787891709 | 7.78° C | 99% | 1005.9 hPa | 1.78 mm | - | 0 W/m² | - |
| 1787891405 | 7.78° C | 99% | 1006 hPa | 0 mm | - | 0 W/m² | - |
| 1787891103 | 7.78° C | 99% | 1005.8 hPa | 0 mm | - | 0 W/m² | - |
| 1787890798 | 7.78° C | 99% | 1005.9 hPa | 1.27 mm | - | 0 W/m² | - |
| 1787890497 | 7.78° C | 99% | 1005.8 hPa | 1.27 mm | - | 0 W/m² | - |
| 1787890193 | 7.78° C | 99% | 1005.7 hPa | 0 mm | - | 0 W/m² | - |
| 1787889888 | 7.78° C | 99% | 1005.6 hPa | 0 mm | - | 0 W/m² | - |
| 1787889583 | 7.78° C | 99% | 1005.8 hPa | 1.78 mm | - | 0 W/m² | - |
| 1787889278 | 7.78° C | 99% | 1005.8 hPa | 1.27 mm | - | 0 W/m² | - |
| 1787888977 | 7.78° C | 99% | 1005.8 hPa | 1.27 mm | - | 0 W/m² | - |
| 1787888672 | 7.78° C | 99% | 1005.5 hPa | 3.05 mm | - | 0 W/m² | - |
| 1787888368 | 7.78° C | 99% | 1005.7 hPa | 4.83 mm | - | 0 W/m² | - |
| 1787888063 | 7.78° C | 99% | 1005.7 hPa | 3.05 mm | - | 0 W/m² | - |
| 1787887758 | 7.78° C | 99% | 1005.5 hPa | 1.27 mm | - | 0 W/m² | - |
| 1787887454 | 7.78° C | 99% | 1005.8 hPa | 1.78 mm | - | 0 W/m² | - |
| 1787887148 | 7.78° C | 99% | 1005.4 hPa | 3.56 mm | - | 0 W/m² | - |
| 1787886844 | 7.78° C | 99% | 1005.2 hPa | 1.78 mm | - | 0 W/m² | - |
| 1787886543 | 7.78° C | 99% | 1005.5 hPa | 0 mm | - | 0 W/m² | - |
| 1787886239 | 7.78° C | 99% | 1005.4 hPa | 0 mm | - | 0 W/m² | - |
| 1787885938 | 7.78° C | 99% | 1005.4 hPa | 1.27 mm | - | 0 W/m² | - |
| 1787885636 | 7.78° C | 99% | 1005.5 hPa | 3.05 mm | - | 0 W/m² | - |
| 1787885335 | 7.78° C | 99% | 1005.4 hPa | 3.05 mm | - | 0 W/m² | - |
| 1787885030 | 7.78° C | 99% | 1005.4 hPa | 3.05 mm | - | 0 W/m² | - |
* Rain latest hour (hover to see other rain measurements)
** Current wind speed in m/s (hover to see current wind gust speed)